Location: Newark
(7.0858°N, 171.3717°E)
Time: 04:19:43
(UTC+00:00)

Vanguard 2 - Pass Details

Date: 27 November 2020
Orbit: 553 x 2937 km, 32.9° (Epoch: 26 January)

Event Time Altitude Azimuth Distance (km) Brightness Sun altitude
Rises 08:20:15 0° 275° (W) 4,150 12.2 -30.0°
Reaches altitude 10° 08:23:07 10° 264° (W) 3,485 11.7 -30.7°
Maximum altitude 08:31:03 31° 206° (SSW) 2,948 10.7 -32.5°
Drops below altitude 10° 08:42:46 10° 151° (SSE) 5,181 11.6 -35.2°
Sets 08:48:18 0° 142° (SE) 6,489 12.1 -36.5°
